GW6495 Weather Reports


time (UTC)temp
F
wind
direction
speed
knots
gust
knots
rain 1hr
in
rain 24hr
in
rain mn
in
humidity
%
barometer
mb
20260504175030 40 302 3.5 7.8 0.00 0.00 0.00 64 1017.0
20260504174620 40 285 2.6 7.8 0.00 0.00 0.00 63 1017.0
20260504174025 40 324 2.6 7.0 0.00 0.00 0.00 63 1016.9
20260504173533 40 300 2.6 7.8 0.00 0.00 0.00 63 1017.0
20260504173208 41 280 1.7 7.0 0.00 0.00 0.00 62 1017.1
20260504172539 41 255 2.6 7.8 0.00 0.00 0.00 62 1017.0
20260504172038 41 316 2.6 7.8 0.00 0.00 0.00 61 1017.1
20260504171618 41 256 3.5 7.8 0.00 0.00 0.00 60 1017.0
20260504171023 42 312 1.7 7.0 0.00 0.00 0.00 60 1017.1
20260504170534 42 218 2.6 8.7 0.00 0.00 0.00 59 1017.0
20260504170124 42 278 1.7 8.7 0.00 0.00 0.00 60 1017.1
20260504160142 43 263 1.7 7.8 0.00 0.00 0.00 57 1017.1
20260504151039 40 56 2.6 7.0 0.00 0.00 0.00 63 1016.9
20260504150532 40 268 3.5 7.8 0.00 0.00 0.00 65 1017.0
20260504150142 39 291 1.7 8.7 0.00 0.00 0.00 66 1017.1
20260504141047 37 260 3.5 8.7 0.00 0.00 0.00 68 1017.0
20260504140547 37 313 3.5 10.4 0.00 0.00 0.00 69 1016.8
20260504140130 37 309 5.2 11.3 0.00 0.00 0.00 69 1016.6
20260504130521 36 295 5.2 13.0 0.00 0.00 0.00 70 1016.3
20260504120132 35 195 7.0 17.4 0.00 0.00 0.00 73 1016.0
20260504110526 36 153 7.8 15.6 0.00 0.00 0.00 71 1016.3
20260504110115 36 226 9.6 15.6 0.00 0.00 0.00 71 1016.3
20260504100545 37 309 9.6 21.7 0.00 0.00 0.00 67 1015.3
20260504100117 37 316 8.7 21.7 0.00 0.00 0.00 66 1015.1
20260504090137 39 313 11.3 24.3 0.00 0.00 0.00 59 1014.4
20260504081618 43 302 12.2 23.5 0.00 0.00 0.00 57 1014.1
20260504081044 44 283 7.0 20.0 0.00 0.00 0.00 55 1014.1
20260504080527 44 284 8.7 20.0 0.00 0.00 0.00 53 1014.0
20260504080125 45 297 8.7 18.2 0.00 0.00 0.00 51 1014.0
20260504070108 50 145 0.0 5.2 0.00 0.00 0.00 39 1012.8
20260504050522 52 246 1.7 4.3 0.00 0.00 0.00 31 1013.3
20260504050133 52 210 0.0 6.1 0.00 0.00 0.00 30 1013.3
20260504045526 52 244 1.7 6.1 0.00 0.00 0.00 29 1013.4
20260504045023 52 282 0.0 4.3 0.00 0.00 0.00 31 1013.3
20260504044623 52 274 0.9 4.3 0.00 0.00 0.00 29 1013.4
20260504044025 52 255 0.0 3.5 0.00 0.00 0.00 30 1013.4
20260504043536 52 311 0.9 7.8 0.00 0.00 0.00 29 1013.3
20260504043132 51 290 1.7 7.8 0.00 0.00 0.00 32 1013.3
20260504042519 51 253 0.9 3.5 0.00 0.00 0.00 34 1013.3
20260504042033 50 315 0.9 3.5 0.00 0.00 0.00 34 1013.3
20260504041608 50 249 0.0 2.6 0.00 0.00 0.00 36 1013.3
20260504041031 49 138 0.0 2.6 0.00 0.00 0.00 35 1013.3
20260504040513 50 150 0.0 2.6 0.00 0.00 0.00 35 1013.3
20260504040138 51 150 0.0 1.7 0.00 0.00 0.00 34 1013.4
20260504035527 51 131 0.0 1.7 0.00 0.00 0.00 32 1013.3
20260504035036 51 122 0.0 1.7 0.00 0.00 0.00 32 1013.3
20260504034615 51 118 0.0 1.7 0.00 0.00 0.00 31 1013.3
20260504034026 51 136 0.0 1.7 0.00 0.00 0.00 34 1013.3
20260504033527 51 134 0.9 2.6 0.00 0.00 0.00 32 1013.3
20260504033133 51 111 0.0 2.6 0.00 0.00 0.00 33 1013.3
20260504032514 52 144 0.0 2.6 0.00 0.00 0.00 33 1013.1
20260504032047 52 134 0.0 2.6 0.00 0.00 0.00 33 1013.1
20260504031633 53 258 0.0 2.6 0.00 0.00 0.00 31 1013.1
20260504031023 53 120 0.0 3.5 0.00 0.00 0.00 31 1013.2
20260504030523 53 133 0.9 3.5 0.00 0.00 0.00 32 1013.1
20260504030115 53 289 0.9 4.3 0.00 0.00 0.00 31 1013.0
20260504025523 54 147 0.9 4.3 0.00 0.00 0.00 33 1013.1
20260504025032 54 300 0.9 5.2 0.00 0.00 0.00 32 1013.0
20260504024626 54 105 0.0 5.2 0.00 0.00 0.00 31 1013.0
20260504024024 54 153 0.9 3.5 0.00 0.00 0.00 32 1012.9
20260504023544 55 294 0.0 5.2 0.00 0.00 0.00 31 1012.9
20260504023113 55 166 0.9 5.2 0.00 0.00 0.00 30 1012.7
20260504022520 55 89 0.0 3.5 0.00 0.00 0.00 31 1012.8
20260504022042 56 150 0.9 3.5 0.00 0.00 0.00 31 1012.9
20260504021620 56 240 0.9 3.5 0.00 0.00 0.00 31 1012.8
20260504021037 56 358 0.0 5.2 0.00 0.00 0.00 31 1012.9
20260504020521 57 126 0.9 5.2 0.00 0.00 0.00 32 1012.9
20260504020037 57 272 0.9 4.3 0.00 0.00 0.00 30 1012.9
20260504015516 58 250 0.9 3.5 0.00 0.00 0.00 30 1012.7
20260504015027 58 281 0.9 3.5 0.00 0.00 0.00 29 1012.7
20260504014616 59 144 0.9 8.7 0.00 0.00 0.00 29 1012.9
20260504014033 59 67 1.7 8.7 0.00 0.00 0.00 30 1012.9
20260504013525 59 144 2.6 7.8 0.00 0.00 0.00 29 1013.0
20260504013110 59 288 1.7 7.0 0.00 0.00 0.00 30 1013.1
20260504012537 60 246 0.9 6.1 0.00 0.00 0.00 30 1013.1
20260504012023 60 109 1.7 6.1 0.00 0.00 0.00 29 1013.2
20260504011542 61 63 1.7 7.8 0.00 0.00 0.00 30 1013.3
20260504011021 61 141 3.5 7.8 0.00 0.00 0.00 29 1013.3
20260504010525 61 179 1.7 7.0 0.00 0.00 0.00 30 1013.3
20260504010156 61 238 1.7 6.1 0.00 0.00 0.00 32 1013.2
20260504005530 61 308 0.0 6.1 0.00 0.00 0.00 31 1013.5
20260504005030 61 264 1.7 6.1 0.00 0.00 0.00 31 1013.4
20260504004607 61 150 2.6 9.6 0.00 0.00 0.00 30 1013.5
20260504004024 62 205 2.6 9.6 0.00 0.00 0.00 31 1013.5
20260504003531 62 301 1.7 7.0 0.00 0.00 0.00 31 1013.5
20260504003100 62 160 1.7 7.8 0.00 0.00 0.00 30 1013.6
20260504002519 62 111 0.9 7.8 0.00 0.00 0.00 29 1013.5
20260504002044 62 111 0.9 6.1 0.00 0.00 0.00 29 1013.6
20260504001629 63 326 1.7 9.6 0.00 0.00 0.00 29 1013.7
20260504001040 62 101 4.3 9.6 0.00 0.00 0.00 30 1013.6
20260504000525 62 300 1.7 13.9 0.00 0.00 0.00 29 1013.7
20260504000153 63 297 3.5 13.9 0.00 0.00 0.00 29 1013.6
20260503235543 63 68 1.7 6.1 0.00 0.00 0.00 28 1013.6
20260503235040 63 269 2.6 8.7 0.00 0.00 0.00 28 1013.6
20260503234546 63 134 3.5 8.7 0.00 0.00 0.00 30 1013.6
20260503234024 63 276 0.9 7.0 0.00 0.00 0.00 30 1013.7
20260503233523 63 297 1.7 11.3 0.00 0.00 0.00 28 1013.7
20260503233124 63 276 4.3 11.3 0.00 0.00 0.00 27 1013.9
20260503232524 63 269 1.7 11.3 0.00 0.00 0.00 27 1013.8
20260503232031 63 252 4.3 11.3 0.00 0.00 0.00 25 1013.7
20260503231604 64 240 2.6 8.7 0.00 0.00 0.00 25 1014.0
20260503231048 64 300 3.5 7.8 0.00 0.00 0.00 25 1014.0
20260503230527 63 275 1.7 7.8 0.00 0.00 0.00 24 1014.3
20260503230142 63 346 2.6 10.4 0.00 0.00 0.00 23 1014.3
20260503225532 63 264 2.6 10.4 0.00 0.00 0.00 22 1014.1
20260503225022 63 301 1.7 10.4 0.00 0.00 0.00 24 1014.1
20260503224629 63 155 3.5 10.4 0.00 0.00 0.00 25 1014.2
20260503224019 64 296 1.7 7.8 0.00 0.00 0.00 24 1014.3
20260503223526 64 260 1.7 8.7 0.00 0.00 0.00 26 1014.4
20260503223126 64 276 3.5 8.7 0.00 0.00 0.00 26 1014.4
20260503222535 64 216 1.7 12.2 0.00 0.00 0.00 25 1014.3
20260503222022 63 160 4.3 12.2 0.00 0.00 0.00 26 1014.5
20260503221626 63 245 2.6 9.6 0.00 0.00 0.00 26 1014.7
20260503221046 63 267 1.7 11.3 0.00 0.00 0.00 27 1014.8
20260503220522 63 251 4.3 11.3 0.00 0.00 0.00 26 1014.7
20260503220143 63 256 3.5 8.7 0.00 0.00 0.00 28 1014.7
20260503215525 63 147 3.5 8.7 0.00 0.00 0.00 29 1014.9
20260503215026 63 279 3.5 7.0 0.00 0.00 0.00 29 1015.0
20260503214548 63 74 2.6 5.2 0.00 0.00 0.00 33 1014.9
20260503214035 63 288 0.9 8.7 0.00 0.00 0.00 34 1015.1
20260503213522 64 255 1.7 8.7 0.00 0.00 0.00 33 1015.3
20260503213037 64 287 1.7 7.0 0.00 0.00 0.00 30 1015.3
20260503212527 64 254 2.6 8.7 0.00 0.00 0.00 34 1015.4
20260503212027 64 250 2.6 7.8 0.00 0.00 0.00 35 1015.5
20260503211629 64 24 2.6 7.0 0.00 0.00 0.00 35 1015.5
20260503211029 64 228 2.6 7.0 0.00 0.00 0.00 37 1015.5
20260503210527 64 220 1.7 5.2 0.00 0.00 0.00 36 1015.8
20260503210133 63 285 1.7 6.1 0.00 0.00 0.00 37 1015.7
20260503205522 63 338 2.6 6.1 0.00 0.00 0.00 34 1015.8
20260503205023 63 253 1.7 6.1 0.00 0.00 0.00 35 1016.0
20260503204550 63 293 1.7 6.1 0.00 0.00 0.00 37 1015.9
20260503204043 63 295 0.9 6.1 0.00 0.00 0.00 39 1016.1
20260503203521 63 148 2.6 7.0 0.00 0.00 0.00 38 1016.1
20260503203116 63 278 2.6 11.3 0.00 0.00 0.00 38 1016.1
20260503202520 63 127 2.6 8.7 0.00 0.00 0.00 35 1016.3
20260503202040 63 63 0.9 8.7 0.00 0.00 0.00 36 1016.1
20260503201554 63 214 1.7 10.4 0.00 0.00 0.00 38 1016.3
20260503201026 62 160 1.7 10.4 0.00 0.00 0.00 39 1016.3
20260503200549 62 255 0.9 9.6 0.00 0.00 0.00 39 1016.5
20260503200105 61 306 1.7 9.6 0.00 0.00 0.00 40 1016.3
20260503195541 61 131 3.5 10.4 0.00 0.00 0.00 40 1016.5
20260503195035 61 91 0.9 12.2 0.00 0.00 0.00 39 1016.5
20260503194627 62 168 3.5 12.2 0.00 0.00 0.00 38 1016.7
20260503194035 62 256 5.2 12.2 0.00 0.00 0.00 35 1016.8
20260503193542 62 300 0.9 8.7 0.00 0.00 0.00 37 1016.7
20260503193050 62 60 1.7 7.8 0.00 0.00 0.00 37 1016.9
20260503192530 63 70 1.7 6.1 0.00 0.00 0.00 36 1016.9
20260503192032 62 98 1.7 7.0 0.00 0.00 0.00 42 1016.9
20260503191610 61 240 2.6 7.0 0.00 0.00 0.00 41 1016.9
20260503191031 61 292 1.7 9.6 0.00 0.00 0.00 40 1017.0
20260503190533 61 342 2.6 9.6 0.00 0.00 0.00 40 1017.0
20260503190127 61 250 0.9 5.2 0.00 0.00 0.00 39 1017.1
20260503185539 61 244 1.7 5.2 0.00 0.00 0.00 42 1017.2
20260503185035 60 136 0.9 7.8 0.00 0.00 0.00 41 1017.3
20260503184612 60 127 2.6 7.8 0.00 0.00 0.00 40 1017.2
20260503184049 60 79 1.7 5.2 0.00 0.00 0.00 41 1017.3
20260503183536 60 18 2.6 5.2 0.00 0.00 0.00 39 1017.4
20260503183112 61 168 0.9 5.2 0.00 0.00 0.00 40 1017.5
20260503182539 60 289 0.9 7.8 0.00 0.00 0.00 44 1017.4
20260503182018 60 134 3.5 7.8 0.00 0.00 0.00 42 1017.5
20260503181614 60 266 1.7 6.1 0.00 0.00 0.00 42 1017.6
20260503181045 60 214 1.7 7.0 0.00 0.00 0.00 42 1017.7
20260503180524 59 245 1.7 7.0 0.00 0.00 0.00 42 1017.8
20260503180110 59 244 1.7 8.7 0.00 0.00 0.00 44 1017.7
20260503175529 59 179 1.7 8.7 0.00 0.00 0.00 44 1017.9